Terminal Aerodrome Forecast
Issued by NWS Boston, MA

Home | Current Version | Previous Version | Text Only | Print | Product List | Glossary On
Versions: 1 2 3 4 5 6 7 8 9 10 11 12 13 14 15 16 17 18 19 20 21 22 23 24 25 26 27 28 29 30 31 32 33 34 35 36 37 38 39 40 41
000
FTUS41 KBOX 310903 AAA
TAFBDL
TAF AMD
KBDL 310903Z 3109/0112 18006KT P6SM BKN035
     FM311000 20006KT P6SM BKN035
     FM311700 21010KT P6SM VCTS BKN035CB
     FM312100 20010KT 5SM -SHRA OVC035=

USA.gov is the U.S. government's official web portal to all federal, state and local government web resources and services.